Location: Rathdrum
(47.8130°N, 116.8960°W)
Time: 17:41:13
(UTC-08:00)

Amateur Radio Satellites - All Passes

Search period start: 13 February 2016 17:11
Search period end: 14 February 2016 17:11
Location: Rathdrum, 47.8130°N, 116.8960°W

Satellite Date Start Highest point End Downlink Frequencies (MHz)
Time Altitude Azimuth
GOMX 1 13 Feb 17:12:03 17:16:37 31° 66° (ENE) 17:20:58 467.674
CUTE-I 13 Feb 17:13:11 17:18:31 85° 255° (WSW) 17:23:56 437.470
AIST 2 13 Feb 17:21:31 17:25:07 29° 117° (ESE) 17:28:45 435.215
STARS 13 Feb 17:25:57 17:28:28 15° 301° (WNW) 17:30:57 437.465
AO-85 13 Feb 17:26:47 17:32:04 83° 51° (NE) 17:36:54 145.980
Cubesat XI-IV 13 Feb 17:28:24 17:33:41 65° 258° (WSW) 17:39:02 437.490
RS-15 13 Feb 17:32:51 17:44:24 49° 32° (NNE) 17:56:15 29.354- 29.394
CUBESAT XI-V 13 Feb 17:33:02 17:37:46 71° 101° (ESE) 17:42:26 437.345
BEESAT 3 13 Feb 17:36:55 17:40:12 24° 322° (NW) 17:43:30 437.485
CUTE 1.7 + AOD 2 13 Feb 17:37:22 17:38:28 11° 57° (ENE) 17:39:35 437.475
LilacSat-2 13 Feb 17:38:45 17:42:27 48° 261° (W) 17:46:09 437.200
Cosmos 2504 13 Feb 17:45:08 17:49:47 16° 288° (WNW) 17:54:16 435.465 / 435.565
ISS 13 Feb 17:45:26 17:48:32 41° 5° (N) 17:51:39 145.825
BRITE-PL 13 Feb 18:05:19 18:10:52 57° 260° (W) 18:16:12 437.365/2234.400
DOVE 4 13 Feb 18:09:07 18:13:55 52° 71° (ENE) 18:18:28 437.250
BEESAT 2 13 Feb 18:09:25 18:12:27 20° 325° (NW) 18:15:30 435.950
STRAND 1 13 Feb 18:20:03 18:24:33 29° 95° (E) 18:29:01 437.568
CANX-2 13 Feb 18:20:11 18:23:51 30° 67° (ENE) 18:27:34 2200.000
HO-68 13 Feb 18:23:10 18:30:04 53° 64° (ENE) 18:37:01 435.675
GONETS M04 13 Feb 18:28:09 18:36:35 47° 70° (ENE) 18:45:00
CINEMA 3 13 Feb 18:32:32 18:36:29 32° 68° (ENE) 18:40:19 145.822/145.860
PCSat 13 Feb 18:36:02 18:41:30 81° 238° (WSW) 18:46:56 145.827
Cosmos 2499 13 Feb 18:44:57 18:51:58 28° 61° (ENE) 18:58:33 435.465 / 435.565
COMPASS 1 13 Feb 18:46:37 18:50:12 29° 67° (ENE) 18:53:50 437.405
GOMX 1 13 Feb 18:49:36 18:54:35 41° 263° (W) 18:59:21 467.674
PRISM 13 Feb 18:50:24 18:53:04 16° 91° (E) 18:55:42 437.425
FUNcube-1 13 Feb 18:55:50 18:56:55 11° 57° (ENE) 18:58:00 145.935
CUTE-I 13 Feb 18:56:59 18:59:23 13° 274° (W) 19:01:47 437.470
AIST 2 13 Feb 18:59:35 19:03:31 39° 316° (NW) 19:07:28 435.215
SEEDS 13 Feb 19:08:03 19:12:11 62° 74° (ENE) 19:16:22 437.485
AO-85 13 Feb 19:08:43 19:11:50 17° 252° (WSW) 19:14:49 145.980
CUTE 1.7 + AOD 2 13 Feb 19:09:23 19:13:36 83° 78° (ENE) 19:17:53 437.475
AAUSAT CUBESAT 2 13 Feb 19:10:40 19:14:33 41° 70° (ENE) 19:18:30 437.432
CUBESAT XI-V 13 Feb 19:11:37 19:14:37 17° 301° (WNW) 19:17:36 437.345
Oscar 11 13 Feb 19:19:21 19:22:50 25° 65° (ENE) 19:26:20 145.826/435.025
ISS 13 Feb 19:21:56 19:25:11 83° 206° (SSW) 19:28:25 145.825
UWE-3 13 Feb 19:37:58 19:41:52 38° 69° (ENE) 19:45:45 435.000/436.395/437.385
AIST 1 13 Feb 19:45:40 19:48:54 20° 68° (ENE) 19:52:05
RS-15 13 Feb 19:45:48 19:57:53 75° 239° (WSW) 20:10:08 29.354- 29.394
CUBEBUG 2 13 Feb 19:46:16 19:50:28 64° 74° (ENE) 19:54:37 437.445
DOVE 4 13 Feb 19:48:07 19:51:52 21° 268° (W) 19:55:28 437.250
DELFI C3 13 Feb 19:50:28 19:53:49 26° 66° (ENE) 19:57:11 145.870
CANX-2 13 Feb 19:56:00 19:59:42 29° 265° (W) 20:03:27 2200.000
STRAND 1 13 Feb 19:58:59 20:03:52 42° 293° (WNW) 20:08:42 437.568
HUMSAT D 13 Feb 20:03:57 20:06:39 17° 62° (ENE) 20:09:22 437.325/437.525
CINEMA 3 13 Feb 20:09:41 20:13:38 30° 264° (W) 20:17:28 145.822/145.860
HO-68 13 Feb 20:11:31 20:18:02 36° 264° (W) 20:24:36 435.675
PCSat 13 Feb 20:21:28 20:24:01 14° 257° (WSW) 20:26:37 145.827
ZACube-1 13 Feb 20:21:38 20:25:48 78° 76° (ENE) 20:29:58 437.345
COMPASS 1 13 Feb 20:22:05 20:25:45 30° 265° (W) 20:29:28 437.405
PRISM 13 Feb 20:24:39 20:28:45 53° 289° (WNW) 20:32:47 437.425
GONETS M04 13 Feb 20:25:11 20:33:26 47° 272° (W) 20:41:41
FUNcube-1 13 Feb 20:28:21 20:32:31 88° 83° (E) 20:36:41 145.935
Cosmos 2499 13 Feb 20:37:40 20:46:03 74° 265° (W) 20:53:45 435.465 / 435.565
AIST 2 13 Feb 20:41:40 20:43:09 12° 338° (NNW) 20:44:38 435.215
SEEDS 13 Feb 20:46:03 20:48:20 14° 271° (W) 20:50:38 437.485
50 SAT 13 Feb 20:46:59 20:48:03 11° 59° (ENE) 20:49:06 437.505
AAUSAT CUBESAT 2 13 Feb 20:47:07 20:50:15 21° 268° (W) 20:53:26 437.432
CUTE 1.7 + AOD 2 13 Feb 20:49:06 20:50:04 11° 273° (W) 20:51:02 437.475
VELOX 1 13 Feb 20:50:01 20:52:14 14° 57° (ENE) 20:54:27 145.980
Oscar 11 13 Feb 20:54:47 20:58:48 38° 263° (W) 21:02:52 145.826/435.025
UKube-1 13 Feb 20:55:33 20:57:45 14° 58° (ENE) 20:59:58 .
ISS 13 Feb 20:59:08 21:01:13 16° 223° (SW) 21:03:17 145.825
UNISAT 6 13 Feb 21:01:43 21:03:29 12° 88° (E) 21:05:16 437.425
AISAT 13 Feb 21:06:20 21:09:32 20° 61° (ENE) 21:12:44 437.250
CUBEBUG 1 13 Feb 21:13:09 21:16:12 18° 61° (ENE) 21:19:14 437.445
DX 1 13 Feb 21:14:06 21:17:33 23° 63° (ENE) 21:21:02 434.975-435.025
UWE-3 13 Feb 21:15:13 21:18:30 22° 267° (W) 21:21:46 435.000/436.395/437.385
AIST 1 13 Feb 21:22:36 21:26:46 45° 267° (W) 21:30:51
DELFI C3 13 Feb 21:25:07 21:28:39 30° 264° (W) 21:32:15 145.870
CUBEBUG 2 13 Feb 21:25:23 21:27:32 14° 271° (W) 21:29:41 437.445
HUMSAT D 13 Feb 21:37:58 21:41:56 52° 260° (W) 21:45:58 437.325/437.525
ESTCUBE 1 13 Feb 21:44:45 21:49:05 45° 69° (ENE) 21:53:26 437.505/2401.250
ANTELSAT 13 Feb 21:44:57 21:48:53 32° 96° (E) 21:52:53 437.575/2403.000
TIGRISAT 13 Feb 21:50:13 21:54:13 34° 97° (E) 21:58:16 435.000
POLYITAN 1 13 Feb 21:57:52 21:59:06 11° 88° (E) 22:00:20 437.675
QB50P2 13 Feb 21:58:05 21:59:33 12° 88° (E) 22:01:01 145.880/145.840
RS-15 13 Feb 22:00:01 22:08:18 22° 262° (W) 22:16:39 29.354- 29.394
ZACube-1 13 Feb 22:01:32 22:02:40 11° 273° (W) 22:03:48 437.345
50 SAT 13 Feb 22:17:47 22:21:29 77° 257° (WSW) 22:25:15 437.505
VELOX 1 13 Feb 22:23:36 22:28:05 85° 257° (WSW) 22:32:35 145.980
TISAT 1 13 Feb 22:24:24 22:26:39 14° 59° (ENE) 22:28:54 437.305
POPSAT HIP 1 13 Feb 22:25:13 22:28:26 21° 93° (E) 22:31:38 437.405
DUCHIFAT 1 13 Feb 22:26:27 22:29:35 20° 92° (E) 22:32:42 145.980
NANOSAT C BR1 13 Feb 22:27:00 22:30:15 21° 93° (E) 22:33:29 145.865
UKube-1 13 Feb 22:28:53 22:33:14 80° 256° (WSW) 22:37:36 .
SPROUT 13 Feb 22:30:44 22:34:42 37° 68° (ENE) 22:38:39 437.525
Cosmos 2499 13 Feb 22:33:01 22:37:31 16° 288° (WNW) 22:41:53 435.465 / 435.565
BEESAT 3 13 Feb 22:35:45 22:38:33 18° 33° (NNE) 22:41:20 437.485
UNISAT 6 13 Feb 22:36:22 22:40:45 79° 285° (WNW) 22:45:12 437.425
QB50P1 13 Feb 22:37:08 22:40:46 28° 95° (E) 22:44:23 145.935-145.965
AISAT 13 Feb 22:41:17 22:45:40 54° 259° (W) 22:50:04 437.250
CUBEBUG 1 13 Feb 22:47:43 22:52:05 58° 259° (W) 22:56:29 437.445
DX 1 13 Feb 22:49:21 22:53:31 43° 261° (W) 22:57:44 434.975-435.025
CUSAT 1 13 Feb 23:06:24 23:10:47 16° 78° (ENE) 23:15:03 437.405
BEESAT 2 13 Feb 23:08:04 23:11:15 22° 36° (NE) 23:14:24 435.950
BUGSAT 1 13 Feb 23:08:21 23:11:52 28° 96° (E) 23:15:21 437.445
Cosmos 2491 13 Feb 23:19:48 23:25:28 18° 53° (NE) 23:31:08 435.465 / 435.565
PHONESAT 2.4 13 Feb 23:21:31 23:23:31 15° 163° (SSE) 23:25:31 2401.200-2431.200
ANTELSAT 13 Feb 23:21:47 23:25:35 30° 293° (WNW) 23:29:25 437.575/2403.000
ESTCUBE 1 13 Feb 23:22:35 23:26:07 22° 268° (W) 23:29:40 437.505/2401.250
TIGRISAT 13 Feb 23:27:08 23:30:50 28° 294° (WNW) 23:34:34 435.000
POLYITAN 1 13 Feb 23:31:16 23:35:30 80° 285° (WNW) 23:39:42 437.675
QB50P2 13 Feb 23:31:42 23:35:55 77° 286° (WNW) 23:40:08 145.880/145.840
ITUPSAT 1 13 Feb 23:36:02 23:39:12 18° 58° (ENE) 23:42:22 437.325
BEESAT 13 Feb 23:41:08 23:44:32 20° 60° (ENE) 23:47:57 436.000
TISAT 1 13 Feb 23:57:36 00:01:48 72° 257° (WSW) 00:06:01 437.305
POPSAT HIP 1 14 Feb 00:00:27 00:04:25 41° 291° (WNW) 00:08:22 437.405
DUCHIFAT 1 14 Feb 00:01:32 00:05:30 42° 290° (WNW) 00:09:27 145.980
AIST 2 14 Feb 00:01:44 00:04:00 14° 27° (NNE) 00:06:15 435.215
NANOSAT C BR1 14 Feb 00:02:14 00:06:10 40° 291° (WNW) 00:10:06 145.865
JAS-2 14 Feb 00:07:00 00:09:07 12° 83° (E) 00:11:10 435.910
SPROUT 14 Feb 00:07:16 00:10:47 24° 266° (W) 00:14:18 437.525
QB50P1 14 Feb 00:12:51 00:16:34 31° 293° (WNW) 00:20:17 145.935-145.965
BEESAT 3 14 Feb 00:12:51 00:16:51 84° 231° (SW) 00:20:47 437.485
DANDE 14 Feb 00:15:03 00:21:56 31° 84° (E) 00:28:55 436.750
UNISAT 6 14 Feb 00:15:39 00:16:46 11° 304° (WNW) 00:17:52 437.425
Oscar 19 14 Feb 00:16:28 00:20:13 20° 91° (E) 00:23:58 437.125/150
YUBILEINY 14 Feb 00:18:51 00:21:01 11° 67° (ENE) 00:23:12 435.215
SWISSCUBE 14 Feb 00:32:29 00:37:10 58° 71° (ENE) 00:41:53 437.505
BUGSAT 1 14 Feb 00:43:45 00:47:14 28° 293° (WNW) 00:50:41 437.445
CUSAT 1 14 Feb 00:43:51 00:51:55 67° 96° (E) 00:59:28 437.405
BEESAT 2 14 Feb 00:45:32 00:49:30 61° 236° (SW) 00:53:25 435.950
PHONESAT 2.4 14 Feb 00:57:30 01:00:09 23° 179° (S) 01:02:47 2401.200-2431.200
POLYITAN 1 14 Feb 01:09:49 01:10:35 10° 304° (NW) 01:11:21 437.675
QB50P2 14 Feb 01:10:38 01:11:00 10° 304° (NW) 01:11:21 145.880/145.840
ITUPSAT 1 14 Feb 01:11:45 01:16:31 71° 258° (WSW) 01:21:21 437.325
STARS 14 Feb 01:14:30 01:16:36 13° 57° (ENE) 01:18:42 437.465
Cosmos 2491 14 Feb 01:15:25 01:24:12 71° 78° (ENE) 01:32:57 435.465 / 435.565
BEESAT 14 Feb 01:17:11 01:21:54 62° 258° (WSW) 01:26:40 436.000
Gurwin Techsat 1B 14 Feb 01:24:08 01:28:53 32° 95° (E) 01:33:36 435.225
ITAMSAT 1 14 Feb 01:35:23 01:39:23 22° 92° (E) 01:43:21 435.822/435.867
AIST 2 14 Feb 01:39:16 01:43:23 57° 49° (NE) 01:47:27 435.215
KKS-1 14 Feb 01:41:37 01:45:45 38° 68° (ENE) 01:49:53 437.445
JAS-2 14 Feb 01:49:39 01:55:18 87° 105° (ESE) 02:00:32 435.910
Oscar 19 14 Feb 01:54:54 01:59:59 61° 289° (WNW) 02:05:00 437.125/150
DANDE 14 Feb 01:56:01 02:04:16 75° 284° (WNW) 02:12:41 436.750
YUBILEINY 14 Feb 02:07:12 02:15:39 55° 90° (E) 02:24:11 435.215
MOZHAYETS 4 14 Feb 02:09:20 02:13:20 30° 66° (ENE) 02:17:21
SWISSCUBE 14 Feb 02:11:57 02:15:21 19° 269° (W) 02:18:46 437.505
CUSAT 1 14 Feb 02:27:25 02:34:39 34° 294° (WNW) 02:41:25 437.405
PHONESAT 2.4 14 Feb 02:34:40 02:36:47 16° 196° (SSW) 02:38:53 2401.200-2431.200
Cosmos 2504 14 Feb 02:40:14 02:46:26 22° 76° (ENE) 02:52:41 435.465 / 435.565
SO-50 14 Feb 02:43:15 02:46:45 20° 111° (ESE) 02:50:15 436.795
STARS 14 Feb 02:47:57 02:52:22 84° 256° (WSW) 02:56:47 437.465
AO-7 14 Feb 02:53:49 03:01:17 35° 96° (E) 03:08:39 29.400- 29.500
HORYU 2 14 Feb 02:58:54 02:59:50 11° 87° (E) 03:00:45 437.375
Gurwin Techsat 1B 14 Feb 03:03:57 03:08:55 41° 294° (WNW) 03:13:52 435.225
CUBESAT XI-V 14 Feb 03:04:43 03:07:20 15° 58° (ENE) 03:09:59 437.345
Cosmos 2491 14 Feb 03:13:09 03:20:18 30° 279° (W) 03:27:29 435.465 / 435.565
ITAMSAT 1 14 Feb 03:14:05 03:19:14 59° 290° (WNW) 03:24:22 435.822/435.867
AIST 2 14 Feb 03:18:36 03:21:30 19° 247° (WSW) 03:24:23 435.215
KKS-1 14 Feb 03:18:44 03:22:26 25° 266° (W) 03:26:08 437.445
JAS-2 14 Feb 03:36:09 03:39:34 17° 307° (NW) 03:42:51 435.910
Oscar 19 14 Feb 03:37:06 03:38:17 11° 309° (NW) 03:39:27 437.125/150
DANDE 14 Feb 03:42:29 03:48:39 22° 305° (NW) 03:54:45 436.750
MOZHAYETS 4 14 Feb 03:46:18 03:50:27 34° 264° (W) 03:54:39
YUBILEINY 14 Feb 04:04:39 04:12:47 40° 292° (WNW) 04:21:00 435.215
STRAND 1 14 Feb 04:04:59 04:05:57 10° 51° (NE) 04:06:55 437.568
SO-50 14 Feb 04:21:49 04:26:45 72° 310° (NW) 04:31:43 436.795
Cosmos 2504 14 Feb 04:29:48 04:38:34 87° 98° (E) 04:47:33 435.465 / 435.565
HORYU 2 14 Feb 04:32:35 04:37:04 89° 106° (ESE) 04:41:32 437.375
CUBESAT XI-V 14 Feb 04:39:23 04:44:06 83° 260° (W) 04:48:51 437.345
M-CUBED/EXP-1 PRIME 14 Feb 04:43:01 04:46:27 76° 290° (WNW) 04:50:05 437.505
AO-7 14 Feb 04:46:20 04:54:32 63° 296° (WNW) 05:02:39 29.400- 29.500
AUBIESAT-1 14 Feb 04:48:24 04:51:53 80° 291° (WNW) 04:55:35 437.475
ITAMSAT 1 14 Feb 04:56:25 04:57:39 11° 310° (NW) 04:58:54 435.822/435.867
LilacSat-2 14 Feb 05:10:01 05:12:04 14° 90° (E) 05:14:06 437.200
CUTE-I 14 Feb 05:27:05 05:31:46 30° 94° (E) 05:36:26 437.470
STRAND 1 14 Feb 05:39:04 05:44:05 59° 70° (ENE) 05:49:09 437.568
Cubesat XI-IV 14 Feb 05:42:10 05:47:13 39° 97° (E) 05:52:14 437.490
PRISM 14 Feb 05:43:11 05:46:15 20° 62° (ENE) 05:49:20 437.425
SO-50 14 Feb 06:04:28 06:08:05 20° 332° (NNW) 06:11:44 436.795
BRITE-PL 14 Feb 06:07:31 06:11:50 36° 96° (E) 06:15:51 437.365/2234.400
HORYU 2 14 Feb 06:10:57 06:12:59 13° 303° (WNW) 06:15:01 437.375
CUBESAT XI-V 14 Feb 06:21:18 06:22:14 11° 275° (W) 06:23:12 437.345
Cosmos 2504 14 Feb 06:26:07 06:33:11 26° 301° (WNW) 06:40:21 435.465 / 435.565
AO-7 14 Feb 06:40:24 06:45:46 19° 319° (NW) 06:51:06 29.400- 29.500
LilacSat-2 14 Feb 06:43:01 06:46:43 51° 287° (WNW) 06:50:24 437.200
GOMX 1 14 Feb 06:48:07 06:52:20 45° 98° (E) 06:56:22 467.674
O/OREOS (USA 219) 14 Feb 06:51:08 06:55:34 63° 112° (ESE) 07:00:03 437.305
CUTE 1.7 + AOD 2 14 Feb 06:52:56 06:54:32 12° 87° (E) 06:56:08 437.475
CUTE-I 14 Feb 07:06:53 07:11:59 45° 293° (WNW) 07:17:04 437.470
PRISM 14 Feb 07:17:16 07:21:17 46° 260° (W) 07:25:22 437.425
STRAND 1 14 Feb 07:19:50 07:23:39 21° 269° (W) 07:27:31 437.568
Cubesat XI-IV 14 Feb 07:22:24 07:27:14 35° 296° (WNW) 07:32:03 437.490
Cosmos 2499 14 Feb 07:27:02 07:33:02 21° 75° (ENE) 07:39:00 435.465 / 435.565
GONETS M04 14 Feb 07:33:41 07:41:48 46° 87° (E) 07:49:57
HO-68 14 Feb 07:34:31 07:41:12 39° 97° (E) 07:47:51 435.675
CANX-2 14 Feb 07:37:03 07:41:03 36° 97° (E) 07:45:02 2200.000
DOVE 4 14 Feb 07:42:13 07:46:28 85° 101° (E) 07:50:37 437.250
AO-85 14 Feb 07:46:02 07:49:02 15° 107° (ESE) 07:52:04 145.980
BRITE-PL 14 Feb 07:46:15 07:50:12 27° 296° (WNW) 07:53:55 437.365/2234.400
SO-50 14 Feb 07:49:04 07:50:31 11° 356° (N) 07:51:58 436.795
CINEMA 3 14 Feb 08:00:06 08:04:07 45° 99° (E) 08:08:10 145.822/145.860
COMPASS 1 14 Feb 08:01:09 08:05:00 33° 96° (E) 08:08:50 437.405
UNISAT 6 14 Feb 08:03:46 08:06:31 17° 61° (ENE) 08:09:18 437.425
ZACube-1 14 Feb 08:08:21 08:09:53 12° 88° (E) 08:11:27 437.345
RS-15 14 Feb 08:11:46 08:14:21 11° 90° (E) 08:16:58 29.354- 29.394
FUNcube-1 14 Feb 08:14:22 08:16:23 13° 89° (E) 08:18:23 145.935
SEEDS 14 Feb 08:24:06 08:28:24 77° 103° (ESE) 08:32:40 437.485
AAUSAT CUBESAT 2 14 Feb 08:24:49 08:28:55 48° 99° (E) 08:32:59 437.432
CUTE 1.7 + AOD 2 14 Feb 08:26:38 08:30:57 78° 283° (WNW) 08:35:14 437.475
GOMX 1 14 Feb 08:26:55 08:30:09 20° 298° (WNW) 08:33:17 467.674
O/OREOS (USA 219) 14 Feb 08:32:06 08:35:24 20° 312° (NW) 08:38:46 437.305
Oscar 11 14 Feb 08:38:25 08:42:15 30° 95° (E) 08:46:05 145.826/435.025
ANTELSAT 14 Feb 08:47:09 08:51:10 42° 70° (ENE) 08:55:12 437.575/2403.000
TIGRISAT 14 Feb 08:52:13 08:56:17 45° 70° (ENE) 09:00:21 435.000
POLYITAN 1 14 Feb 08:53:33 08:55:54 15° 60° (ENE) 08:58:16 437.675
QB50P2 14 Feb 08:53:49 08:56:17 15° 60° (ENE) 08:58:44 145.880/145.840
DELFI C3 14 Feb 08:59:31 09:02:59 26° 95° (E) 09:06:25 145.870
UWE-3 14 Feb 08:59:54 09:04:04 54° 100° (E) 09:08:18 435.000/436.395/437.385
CUBEBUG 2 14 Feb 09:09:50 09:14:04 88° 284° (WNW) 09:18:23 437.445
CANX-2 14 Feb 09:13:14 09:16:46 25° 295° (WNW) 09:20:19 2200.000
Cosmos 2499 14 Feb 09:16:01 09:24:52 83° 96° (E) 09:33:44 435.465 / 435.565
HUMSAT D 14 Feb 09:18:32 09:21:36 19° 92° (E) 09:24:41 437.325/437.525
PCSat 14 Feb 09:20:57 09:26:06 46° 115° (ESE) 09:31:17 145.827
POPSAT HIP 1 14 Feb 09:21:01 09:24:29 25° 65° (ENE) 09:27:58 437.405
DUCHIFAT 1 14 Feb 09:21:42 09:25:05 24° 65° (ENE) 09:28:29 145.980
DOVE 4 14 Feb 09:22:02 09:23:32 12° 303° (WNW) 09:25:02 437.250
HO-68 14 Feb 09:22:12 09:29:04 50° 297° (WNW) 09:35:55 435.675
NANOSAT C BR1 14 Feb 09:22:28 09:25:57 26° 65° (ENE) 09:29:26 145.865
AO-85 14 Feb 09:23:21 09:28:45 81° 128° (SE) 09:34:18 145.980
SO-50 14 Feb 09:30:09 09:33:07 16° 21° (NNE) 09:36:01 436.795
GONETS M04 14 Feb 09:30:22 09:38:38 46° 290° (WNW) 09:47:01
QB50P1 14 Feb 09:32:47 09:36:34 33° 67° (ENE) 09:40:22 145.935-145.965
COMPASS 1 14 Feb 09:36:54 09:40:29 27° 294° (WNW) 09:44:02 437.405
CINEMA 3 14 Feb 09:38:00 09:41:00 20° 297° (WNW) 09:44:01 145.822/145.860
UNISAT 6 14 Feb 09:38:38 09:42:51 58° 259° (W) 09:47:05 437.425
ZACube-1 14 Feb 09:42:28 09:46:43 78° 285° (WNW) 09:51:03 437.345
FUNcube-1 14 Feb 09:48:52 09:53:06 70° 286° (WNW) 09:57:23 145.935
AIST 1 14 Feb 09:54:45 09:59:10 87° 93° (E) 10:03:36
AAUSAT CUBESAT 2 14 Feb 10:01:05 10:04:07 20° 297° (WNW) 10:07:09 437.432
BUGSAT 1 14 Feb 10:01:13 10:04:56 32° 68° (ENE) 10:08:39 437.445
SEEDS 14 Feb 10:01:23 10:03:33 14° 301° (WNW) 10:05:42 437.485
CUTE 1.7 + AOD 2 14 Feb 10:05:10 10:06:03 11° 303° (WNW) 10:06:55 437.475
VELOX 1 14 Feb 10:11:51 10:14:15 14° 89° (E) 10:16:39 145.980
RS-15 14 Feb 10:12:57 10:23:34 53° 113° (ESE) 10:34:46 29.354- 29.394
UKube-1 14 Feb 10:14:18 10:16:24 13° 89° (E) 10:18:30 .
Oscar 11 14 Feb 10:14:31 10:18:23 31° 293° (WNW) 10:22:14 145.826/435.025
JAS-2 14 Feb 10:23:08 10:26:34 14° 51° (NE) 10:29:51 435.910
ANTELSAT 14 Feb 10:24:50 10:28:06 21° 267° (W) 10:31:22 437.575/2403.000
POLYITAN 1 14 Feb 10:27:01 10:31:13 69° 257° (WSW) 10:35:27 437.675
QB50P2 14 Feb 10:27:25 10:31:37 66° 258° (WSW) 10:35:51 145.880/145.840
AISAT 14 Feb 10:28:41 10:32:07 22° 93° (E) 10:35:31 437.250
TIGRISAT 14 Feb 10:30:06 10:33:13 20° 268° (W) 10:36:20 435.000
CUBEBUG 1 14 Feb 10:33:38 10:36:53 20° 92° (E) 10:40:06 437.445
DELFI C3 14 Feb 10:34:19 10:37:54 31° 292° (WNW) 10:41:28 145.870
DX 1 14 Feb 10:34:20 10:37:55 25° 94° (E) 10:41:28 434.975-435.025
UWE-3 14 Feb 10:37:19 10:40:12 18° 298° (WNW) 10:43:06 435.000/436.395/437.385
CUBEBUG 2 14 Feb 10:48:45 10:50:04 11° 302° (WNW) 10:51:25 437.445
DANDE 14 Feb 10:52:46 10:58:12 24° 57° (ENE) 11:02:37 436.750
HUMSAT D 14 Feb 10:53:28 10:57:28 45° 289° (WNW) 11:01:30 437.325/437.525
POPSAT HIP 1 14 Feb 10:56:16 11:00:10 35° 263° (W) 11:04:04 437.405
DUCHIFAT 1 14 Feb 10:56:44 11:00:38 37° 262° (W) 11:04:34 145.980
NANOSAT C BR1 14 Feb 10:57:43 11:01:35 35° 263° (W) 11:05:28 145.865
PCSat 14 Feb 11:04:38 11:09:38 36° 316° (NW) 11:14:40 145.827
AO-85 14 Feb 11:05:16 11:09:56 27° 326° (NNW) 11:14:35 145.980
QB50P1 14 Feb 11:08:48 11:12:24 27° 265° (W) 11:16:00 145.935-145.965
SO-50 14 Feb 11:10:05 11:14:49 47° 44° (NE) 11:19:23 436.795
ESTCUBE 1 14 Feb 11:10:18 11:14:50 62° 101° (E) 11:19:19 437.505/2401.250
Cosmos 2499 14 Feb 11:11:47 11:19:04 28° 299° (WNW) 11:26:21 435.465 / 435.565
HO-68 14 Feb 11:12:07 11:15:10 13° 319° (NW) 11:18:12 435.675
Gurwin Techsat 1B 14 Feb 11:12:27 11:14:42 13° 52° (NE) 11:16:58 435.225
CUSAT 1 14 Feb 11:18:54 11:24:25 51° 71° (ENE) 11:28:33 437.405
50 SAT 14 Feb 11:19:39 11:23:29 89° 88° (E) 11:27:19 437.505
ZACube-1 14 Feb 11:21:45 11:22:19 10° 303° (WNW) 11:22:52 437.345
GONETS M04 14 Feb 11:35:40 11:38:20 11° 317° (NW) 11:41:01
AIST 1 14 Feb 11:35:53 11:37:28 12° 298° (WNW) 11:39:02
Oscar 19 14 Feb 11:36:14 11:41:05 42° 67° (ENE) 11:45:55 437.125/150
BUGSAT 1 14 Feb 11:36:51 11:40:22 26° 265° (W) 11:43:53 437.445
TISAT 1 14 Feb 11:39:42 11:41:51 14° 89° (E) 11:44:00 437.305
VELOX 1 14 Feb 11:46:49 11:51:13 67° 288° (WNW) 11:55:35 145.980
UKube-1 14 Feb 11:48:38 11:52:58 70° 287° (WNW) 11:57:15 .
SPROUT 14 Feb 11:49:02 11:53:08 44° 98° (E) 11:57:12 437.525
JAS-2 14 Feb 12:03:19 12:10:33 60° 70° (ENE) 12:17:01 435.910
AISAT 14 Feb 12:04:37 12:08:49 43° 291° (WNW) 12:12:58 437.250
AO-7 14 Feb 12:07:41 12:13:06 19° 41° (NE) 12:18:31 29.400- 29.500
CUBEBUG 1 14 Feb 12:09:14 12:13:25 46° 290° (WNW) 12:17:34 437.445
DX 1 14 Feb 12:10:12 12:14:14 38° 292° (WNW) 12:18:14 434.975-435.025
YUBILEINY 14 Feb 12:13:00 12:20:50 33° 64° (ENE) 12:28:35 435.215
RS-15 14 Feb 12:24:48 12:35:58 60° 320° (NW) 12:47:49 29.354- 29.394
Cosmos 2491 14 Feb 12:29:11 12:33:52 16° 72° (ENE) 12:38:33 435.465 / 435.565
Cosmos 2504 14 Feb 12:29:18 12:30:48 10° 41° (NE) 12:32:17 435.465 / 435.565
SWISSCUBE 14 Feb 12:31:34 12:33:04 11° 86° (E) 12:34:34 437.505
DANDE 14 Feb 12:35:20 12:42:04 67° 264° (W) 12:47:04 436.750
ESTCUBE 1 14 Feb 12:48:07 12:51:12 18° 300° (WNW) 12:54:17 437.505/2401.250
Gurwin Techsat 1B 14 Feb 12:48:27 12:53:43 69° 72° (ENE) 12:59:02 435.225
AO-85 14 Feb 12:49:34 12:52:17 14° 350° (N) 12:54:58 145.980
SO-50 14 Feb 12:50:57 12:55:08 30° 244° (WSW) 12:59:12 436.795
PCSat 14 Feb 12:52:12 12:54:41 13° 340° (NNW) 12:57:10 145.827
ITAMSAT 1 14 Feb 12:56:22 13:01:18 46° 67° (ENE) 13:06:17 435.822/435.867
50 SAT 14 Feb 12:56:40 12:56:52 10° 302° (WNW) 12:57:04 437.505
CUSAT 1 14 Feb 13:02:12 13:05:57 19° 279° (W) 13:09:04 437.405
ITUPSAT 1 14 Feb 13:09:19 13:13:11 23° 93° (E) 13:17:02 437.325
TISAT 1 14 Feb 13:13:49 13:17:58 64° 287° (WNW) 13:22:05 437.305
BEESAT 14 Feb 13:14:10 13:18:13 26° 94° (E) 13:22:13 436.000
Oscar 19 14 Feb 13:16:00 13:20:31 30° 265° (W) 13:25:03 437.125/150
SPROUT 14 Feb 13:25:37 13:28:51 21° 297° (WNW) 13:32:05 437.525
ISS 14 Feb 13:39:59 13:42:41 24° 141° (SE) 13:45:24 145.825
JAS-2 14 Feb 13:49:26 13:55:51 31° 266° (W) 14:01:44 435.910
AO-7 14 Feb 13:56:09 14:04:21 64° 64° (ENE) 14:12:35 29.400- 29.500
HORYU 2 14 Feb 13:59:19 14:02:08 17° 59° (ENE) 14:04:56 437.375
M-CUBED/EXP-1 PRIME 14 Feb 14:00:03 14:02:43 22° 61° (ENE) 14:05:20 437.505
AUBIESAT-1 14 Feb 14:05:07 14:07:43 21° 60° (ENE) 14:10:17 437.475
SWISSCUBE 14 Feb 14:06:45 14:11:36 86° 104° (ESE) 14:16:25 437.505
YUBILEINY 14 Feb 14:09:34 14:18:19 66° 267° (W) 14:26:58 435.215
Cosmos 2504 14 Feb 14:19:07 14:27:13 42° 68° (ENE) 14:34:46 435.465 / 435.565
Cosmos 2491 14 Feb 14:20:25 14:29:03 72° 94° (E) 14:37:43 435.465 / 435.565
DANDE 14 Feb 14:22:01 14:23:07 10° 289° (WNW) 14:24:11 436.750
Gurwin Techsat 1B 14 Feb 14:30:34 14:34:12 19° 270° (W) 14:37:52 435.225
AO-85 14 Feb 14:32:02 14:35:04 15° 15° (NNE) 14:38:02 145.980
STARS 14 Feb 14:35:30 14:37:45 14° 89° (E) 14:39:59 437.465
ITAMSAT 1 14 Feb 14:36:35 14:40:58 27° 266° (W) 14:45:25 435.822/435.867
RS-15 14 Feb 14:41:01 14:51:26 35° 352° (N) 15:02:19 29.354- 29.394
ITUPSAT 1 14 Feb 14:46:38 14:51:16 47° 291° (WNW) 14:55:52 437.325
BEESAT 14 Feb 14:51:38 14:56:09 42° 292° (WNW) 15:00:39 436.000
KKS-1 14 Feb 15:05:16 15:09:33 47° 99° (E) 15:13:49 437.445
ISS 14 Feb 15:15:39 15:18:54 72° 339° (NNW) 15:22:09 145.825
CUTE-I 14 Feb 15:16:16 15:18:21 12° 51° (NE) 15:20:27 437.470
O/OREOS (USA 219) 14 Feb 15:18:39 15:22:44 30° 54° (NE) 15:26:47 437.305
Cubesat XI-IV 14 Feb 15:30:28 15:33:35 16° 55° (NE) 15:36:43 437.490
HORYU 2 14 Feb 15:33:51 15:38:14 65° 258° (WSW) 15:42:39 437.375
M-CUBED/EXP-1 PRIME 14 Feb 15:34:18 15:37:18 27° 257° (WSW) 15:40:13 437.505
MOZHAYETS 4 14 Feb 15:37:15 15:41:43 44° 98° (E) 15:46:10
AUBIESAT-1 14 Feb 15:39:09 15:42:14 29° 257° (WSW) 15:45:12 437.475
BEESAT 3 14 Feb 15:44:14 15:48:08 56° 123° (ESE) 15:52:04 437.485
BRITE-PL 14 Feb 15:46:03 15:48:12 12° 55° (NE) 15:50:18 437.365/2234.400
SWISSCUBE 14 Feb 15:46:04 15:48:46 15° 303° (WNW) 15:51:28 437.505
AO-7 14 Feb 15:50:09 15:57:36 35° 264° (W) 16:05:06 29.400- 29.500
LilacSat-2 14 Feb 15:56:14 15:57:57 13° 61° (ENE) 15:59:41 437.200
YUBILEINY 14 Feb 16:09:03 16:13:16 15° 290° (WNW) 16:17:32 435.215
STARS 14 Feb 16:10:15 16:14:37 69° 288° (WNW) 16:18:57 437.465
AO-85 14 Feb 16:12:18 16:17:11 35° 38° (NE) 16:21:44 145.980
Cosmos 2504 14 Feb 16:12:39 16:20:48 50° 272° (W) 16:28:23 435.465 / 435.565
BEESAT 2 14 Feb 16:18:07 16:22:08 80° 127° (SE) 16:26:11 435.950
Cosmos 2491 14 Feb 16:19:17 16:26:43 30° 297° (WNW) 16:34:12 435.465 / 435.565
PCSat 14 Feb 16:22:22 16:26:24 20° 33° (NNE) 16:30:25 145.827
GOMX 1 14 Feb 16:24:10 16:26:23 13° 57° (ENE) 16:28:33 467.674
HO-68 14 Feb 16:25:22 16:27:23 11° 39° (NE) 16:29:26 435.675
CUBESAT XI-V 14 Feb 16:33:21 16:36:48 20° 91° (E) 16:40:13 437.345
KKS-1 14 Feb 16:42:29 16:45:52 22° 298° (WNW) 16:49:14 437.445
CUTE-I 14 Feb 16:52:09 16:57:25 66° 71° (ENE) 17:02:45 437.470
ISS 14 Feb 16:52:33 16:55:38 40° 360° (N) 16:58:44 145.825
O/OREOS (USA 219) 14 Feb 16:57:58 17:02:12 37° 253° (WSW) 17:06:26 437.305
